Weather History for Greenville, MS

Change the Weather History Date:

Friday, November 18, 2011

  Actual Average Record
Temperature  
Mean Temperature 44 °F 53 °F  
Max Temperature 58 °F 64 °F 84 °F (1921)
Min Temperature 30 °F 42 °F 18 °F (1959)
Degree Days  
Heating Degree Days 21 12  
Month to date heating degree days 159 172  
Since 1 July heating degree days 310 286  
Cooling Degree Days 0 0  
Month to date cooling degree days 23 9  
Year to date cooling degree days 2457 2183  
Moisture  
Dew Point 28 °F    
Average Humidity 61    
Maximum Humidity 92    
Minimum Humidity 30    
Precipitation  
Precipitation 0.00 in 0.16 in 4.10 in (1969)
Month to date precipitation 1.30 2.65  
Year to date precipitation 24.12 44.61  
Sea Level Pressure  
Sea Level Pressure 30.28 in    
Wind  
Wind Speed 7 mph (SE)    
Max Wind Speed 16 mph    
Max Gust Speed 21 mph    
Visibility 10 miles    
Events      
T = Trace of Precipitation, MM = Missing Value Source: NWS Daily Summary

Daily Weather History Graph

Daily Weather History Graph

Search for Another Location

Airport:

Trip Planner

Search our weather history database for the weather conditions in past years. The results will help you decide how hot, cold, wet, or windy it might be!

Date:

Astronomy

Nov. 18, 2011 Rise Set
Actual Time 6:37 AM CST 4:59 PM CST
Civil Twilight 6:11 AM CST 5:26 PM CST
Nautical Twilight 5:41 AM CST 5:56 PM CST
Astronomical Twilight 5:11 AM CST 6:26 PM CST
Moon No Moon Rise 12:26 PM CST (11/18)
Length of Visible Light 11h 14m
Length of Day
10h 21m
Waning Gibbous, 49% of the Moon is Illuminated
Nov 18
Waning Gibbous
Nov 25
New
Dec 2
First Quarter
Dec 10
Full
Dec 17
Last Quarter

Hourly Weather History & Observations

Time (CST) Temp. Windchill Dew Point Humidity Pressure Visibility Wind Dir Wind Speed Gust Speed Precip Events Conditions
12:53 AM 34.0 °F - 28.9 °F 82% 30.39 in 10.0 mi Calm Calm - N/A   Clear
1:53 AM 30.0 °F - 28.9 °F 96% 30.38 in 10.0 mi Calm Calm - N/A   Clear
2:53 AM 33.1 °F 28.7 °F 27.0 °F 78% 30.38 in 10.0 mi East 4.6 mph - N/A   Clear
3:53 AM 35.1 °F 30.1 °F 25.0 °F 67% 30.37 in 10.0 mi East 5.8 mph - N/A   Clear
4:53 AM 34.0 °F 29.8 °F 24.1 °F 67% 30.36 in 10.0 mi ESE 4.6 mph - N/A   Clear
5:53 AM 30.0 °F 25.2 °F 24.1 °F 79% 30.37 in 10.0 mi SE 4.6 mph - N/A   Clear
6:53 AM 30.9 °F 24.3 °F 24.1 °F 76% 30.38 in 10.0 mi SE 6.9 mph - N/A   Clear
7:53 AM 37.0 °F 32.4 °F 28.0 °F 70% 30.39 in 10.0 mi SE 5.8 mph - N/A   Clear
8:53 AM 43.0 °F 37.2 °F 28.0 °F 56% 30.38 in 10.0 mi SE 10.4 mph - N/A   Clear
9:53 AM 46.9 °F - 26.1 °F 44% 30.36 in 10.0 mi SE 12.7 mph - N/A   Clear
10:53 AM 51.1 °F - 26.1 °F 38% 30.35 in 10.0 mi SE 12.7 mph - N/A   Clear
11:53 AM 53.1 °F - 26.1 °F 35% 30.30 in 10.0 mi SSE 11.5 mph 18.4 mph N/A   Clear
12:53 PM 54.0 °F - 26.1 °F 34% 30.26 in 10.0 mi South 8.1 mph - N/A   Clear
1:53 PM 57.0 °F - 27.0 °F 32% 30.22 in 10.0 mi SE 8.1 mph - N/A   Clear
2:53 PM 57.0 °F - 28.0 °F 33% 30.19 in 10.0 mi SE 11.5 mph - N/A   Clear
3:53 PM 57.0 °F - 28.0 °F 33% 30.18 in 10.0 mi South 8.1 mph - N/A   Clear
4:53 PM 53.1 °F - 30.9 °F 43% 30.18 in 10.0 mi SSE 3.5 mph - N/A   Clear
5:53 PM 48.2 °F - 30.2 °F 50% 30.15 in 10.0 mi SE 3.5 mph - N/A   Clear
6:53 PM 42.1 °F 37.7 °F 33.1 °F 70% 30.17 in 10.0 mi SSE 6.9 mph - N/A   Clear
7:53 PM 48.0 °F - 30.0 °F 50% 30.17 in 10.0 mi SSE 8.1 mph - N/A   Clear
8:53 PM 43.0 °F 38.2 °F 32.0 °F 65% 30.17 in 10.0 mi South 8.1 mph - N/A   Clear
9:53 PM 45.0 °F 41.2 °F 32.0 °F 60% 30.17 in 10.0 mi SSE 6.9 mph - N/A   Clear
10:53 PM 42.1 °F 38.4 °F 32.0 °F 67% 30.18 in 10.0 mi SE 5.8 mph - N/A   Clear
11:53 PM 43.0 °F 38.8 °F 33.1 °F 68% 30.17 in 10.0 mi SE 6.9 mph - N/A   Clear